| time (UTC) | temp F | wind direction | speed MPH | gust MPH | rain 1hr in | rain 24hr in | rain mn in | humidity % | barometer mb |
| 20260507014844 | 63 | 59 | 2.0 | 8.0 | 0.00 | 0.00 | 0.00 | 90 | 1012.2 |
| 20260507014339 | 63 | 0 | 2.0 | 6.0 | 0.00 | 0.00 | 0.00 | 90 | 1012.4 |
| 20260507013836 | 63 | 342 | 1.0 | 5.0 | 0.00 | 0.00 | 0.00 | 90 | 1012.0 |
| 20260507013333 | 63 | 315 | 2.0 | 4.0 | 0.00 | 0.00 | 0.00 | 90 | 1012.0 |
| 20260507012831 | 63 | 186 | 4.0 | 10.0 | 0.00 | 0.00 | 0.00 | 90 | 1011.9 |
| 20260507012326 | 63 | 67 | 0.0 | 7.0 | 0.00 | 0.00 | 0.00 | 90 | 1011.8 |
| 20260507011824 | 63 | 83 | 0.0 | 5.0 | 0.00 | 0.00 | 0.00 | 90 | 1011.8 |
| 20260507011320 | 63 | 353 | 2.0 | 12.0 | 0.00 | 0.00 | 0.00 | 90 | 1011.6 |
| 20260507010820 | 63 | 86 | 5.0 | 5.0 | 0.00 | 0.00 | 0.00 | 90 | 1011.4 |
| 20260507010316 | 63 | 15 | 5.0 | 9.0 | 0.00 | 0.00 | 0.00 | 89 | 1011.6 |
| 20260507005813 | 63 | 270 | 4.0 | 7.0 | 0.00 | 0.00 | 0.00 | 89 | 1011.4 |
| 20260507005310 | 64 | 196 | 2.0 | 7.0 | 0.00 | 0.00 | 0.00 | 89 | 1011.2 |
| 20260507004801 | 64 | 26 | 1.0 | 3.0 | 0.00 | 0.00 | 0.00 | 89 | 1011.3 |
| 20260507004258 | 64 | 6 | 3.0 | 3.0 | 0.00 | 0.00 | 0.00 | 89 | 1011.2 |
| 20260507003754 | 64 | 62 | 6.0 | 6.0 | 0.00 | 0.00 | 0.00 | 89 | 1011.3 |
| 20260507003250 | 64 | 47 | 3.0 | 9.0 | 0.00 | 0.00 | 0.00 | 88 | 1011.4 |
| 20260507002746 | 64 | 331 | 0.0 | 5.0 | 0.00 | 0.00 | 0.00 | 89 | 1011.3 |
| 20260507002242 | 64 | 328 | 3.0 | 4.0 | 0.00 | 0.00 | 0.00 | 89 | 1011.0 |
| 20260507001739 | 64 | 26 | 4.0 | 11.0 | 0.00 | 0.00 | 0.00 | 88 | 1011.0 |
| 20260507001237 | 64 | 30 | 7.0 | 9.0 | 0.00 | 0.00 | 0.00 | 88 | 1011.0 |
| 20260507000733 | 64 | 0 | 2.0 | 7.0 | 0.00 | 0.00 | 0.00 | 87 | 1011.1 |
| 20260507000228 | 65 | 33 | 3.0 | 10.0 | 0.00 | 0.00 | 0.00 | 87 | 1010.9 |
| 20260506235726 | 65 | 254 | 1.0 | 6.0 | 0.00 | 0.00 | 0.00 | 87 | 1011.0 |
| 20260506235221 | 65 | 283 | 0.0 | 7.0 | 0.00 | 0.00 | 0.00 | 88 | 1011.0 |
| 20260506234718 | 65 | 19 | 2.0 | 6.0 | 0.00 | 0.00 | 0.00 | 87 | 1010.7 |
| 20260506234216 | 65 | 349 | 2.0 | 10.0 | 0.00 | 0.00 | 0.00 | 87 | 1010.6 |
| 20260506233713 | 66 | 47 | 8.0 | 8.0 | 0.00 | 0.00 | 0.00 | 87 | 1010.5 |
| 20260506233209 | 66 | 354 | 3.0 | 15.0 | 0.00 | 0.00 | 0.00 | 86 | 1010.5 |
| 20260506232707 | 66 | 90 | 3.0 | 14.0 | 0.00 | 0.00 | 0.00 | 86 | 1010.3 |
| 20260506232201 | 67 | 15 | 4.0 | 12.0 | 0.00 | 0.00 | 0.00 | 85 | 1010.5 |
| 20260506231658 | 67 | 41 | 2.0 | 7.0 | 0.00 | 0.00 | 0.00 | 85 | 1010.5 |
| 20260506231157 | 68 | 21 | 5.0 | 8.0 | 0.00 | 0.00 | 0.00 | 84 | 1010.3 |
| 20260506230653 | 68 | 54 | 3.0 | 6.0 | 0.00 | 0.00 | 0.00 | 84 | 1010.3 |
| 20260506230150 | 68 | 57 | 5.0 | 9.0 | 0.00 | 0.00 | 0.00 | 84 | 1010.1 |
| 20260506225646 | 69 | 350 | 6.0 | 11.0 | 0.00 | 0.00 | 0.00 | 83 | 1010.1 |
| 20260506225143 | 69 | 318 | 3.0 | 5.0 | 0.00 | 0.00 | 0.00 | 83 | 1010.2 |
| 20260506224640 | 69 | 335 | 4.0 | 12.0 | 0.00 | 0.00 | 0.00 | 83 | 1010.3 |
| 20260506224136 | 69 | 30 | 8.0 | 15.0 | 0.00 | 0.00 | 0.00 | 82 | 1010.3 |
| 20260506223633 | 69 | 302 | 0.0 | 13.0 | 0.00 | 0.00 | 0.00 | 83 | 1010.1 |
| 20260506223129 | 70 | 352 | 3.0 | 10.0 | 0.00 | 0.00 | 0.00 | 83 | 1010.3 |
| 20260506222626 | 70 | 324 | 5.0 | 9.0 | 0.00 | 0.00 | 0.00 | 82 | 1010.4 |
| 20260506222122 | 71 | 5 | 5.0 | 19.0 | 0.00 | 0.00 | 0.00 | 80 | 1010.2 |
| 20260506221620 | 71 | 356 | 3.0 | 7.0 | 0.00 | 0.00 | 0.00 | 81 | 1010.1 |
| 20260506221117 | 71 | 84 | 3.0 | 8.0 | 0.00 | 0.00 | 0.00 | 81 | 1010.1 |
| 20260506220614 | 71 | 307 | 0.0 | 7.0 | 0.00 | 0.00 | 0.00 | 81 | 1010.1 |
| 20260506220109 | 71 | 261 | 5.0 | 9.0 | 0.00 | 0.00 | 0.00 | 82 | 1010.1 |
| 20260506215606 | 70 | 48 | 5.0 | 6.0 | 0.00 | 0.00 | 0.00 | 83 | 1010.0 |
| 20260506215102 | 70 | 0 | 1.0 | 9.0 | 0.00 | 0.00 | 0.00 | 84 | 1010.3 |
| 20260506214559 | 69 | 19 | 2.0 | 9.0 | 0.00 | 0.00 | 0.00 | 85 | 1010.2 |
| 20260506214056 | 69 | 71 | 0.0 | 9.0 | 0.00 | 0.00 | 0.00 | 85 | 1010.2 |
| 20260506213554 | 69 | 77 | 1.0 | 12.0 | 0.00 | 0.00 | 0.00 | 84 | 1010.0 |
| 20260506213051 | 69 | 332 | 5.0 | 8.0 | 0.00 | 0.00 | 0.00 | 84 | 1009.8 |
| 20260506212548 | 69 | 36 | 2.0 | 9.0 | 0.00 | 0.00 | 0.00 | 84 | 1010.0 |
| 20260506212043 | 69 | 296 | 3.0 | 13.0 | 0.00 | 0.00 | 0.00 | 85 | 1009.9 |
| 20260506211539 | 70 | 44 | 7.0 | 13.0 | 0.00 | 0.00 | 0.00 | 84 | 1010.0 |
| 20260506211036 | 71 | 335 | 4.0 | 9.0 | 0.00 | 0.00 | 0.00 | 85 | 1010.0 |
| 20260506210533 | 72 | 19 | 4.0 | 9.0 | 0.00 | 0.00 | 0.00 | 84 | 1009.9 |
| 20260506210029 | 73 | 21 | 5.0 | 6.0 | 0.00 | 0.00 | 0.00 | 84 | 1010.1 |
| 20260506205526 | 73 | 352 | 0.0 | 6.0 | 0.00 | 0.00 | 0.00 | 85 | 1010.0 |
| 20260506205021 | 73 | 31 | 3.0 | 5.0 | 0.00 | 0.00 | 0.00 | 85 | 1009.5 |
| 20260506204520 | 74 | 73 | 5.0 | 7.0 | 0.00 | 0.00 | 0.00 | 85 | 1010.0 |
| 20260506204016 | 74 | 62 | 3.0 | 9.0 | 0.00 | 0.00 | 0.00 | 85 | 1009.8 |
| 20260506203515 | 75 | 345 | 2.0 | 8.0 | 0.00 | 0.00 | 0.00 | 85 | 1009.7 |
| 20260506203011 | 75 | 352 | 3.0 | 7.0 | 0.00 | 0.00 | 0.00 | 85 | 1009.4 |
| 20260506202508 | 77 | 288 | 3.0 | 5.0 | 0.00 | 0.00 | 0.00 | 86 | 1009.5 |
| 20260506202004 | 77 | 29 | 3.0 | 7.0 | 0.00 | 0.00 | 0.00 | 86 | 1009.4 |
| 20260506201502 | 78 | 180 | 0.0 | 5.0 | 0.00 | 0.00 | 0.00 | 85 | 1009.5 |
| 20260506200959 | 79 | 293 | 5.0 | 6.0 | 0.00 | 0.00 | 0.00 | 84 | 1009.4 |
| 20260506200455 | 80 | 63 | 3.0 | 6.0 | 0.00 | 0.00 | 0.00 | 84 | 1009.4 |
| 20260506195951 | 78 | 355 | 2.0 | 6.0 | 0.00 | 0.00 | 0.00 | 86 | 1009.4 |
| 20260506195449 | 79 | 356 | 2.0 | 5.0 | 0.00 | 0.00 | 0.00 | 84 | 1009.5 |
| 20260506194945 | 78 | 24 | 0.0 | 8.0 | 0.00 | 0.00 | 0.00 | 86 | 1009.5 |
| 20260506194442 | 77 | 33 | 3.0 | 8.0 | 0.00 | 0.00 | 0.00 | 85 | 1009.5 |
| 20260506193939 | 79 | 9 | 2.0 | 6.0 | 0.00 | 0.00 | 0.00 | 83 | 1009.6 |
| 20260506193436 | 78 | 84 | 2.0 | 3.0 | 0.00 | 0.00 | 0.00 | 84 | 1009.6 |
| 20260506192932 | 77 | 342 | 2.0 | 4.0 | 0.00 | 0.00 | 0.00 | 84 | 1009.6 |
| 20260506192429 | 77 | 9 | 3.0 | 5.0 | 0.00 | 0.00 | 0.00 | 83 | 1009.6 |
| 20260506191926 | 77 | 0 | 0.0 | 3.0 | 0.00 | 0.00 | 0.00 | 84 | 1009.5 |
| 20260506191422 | 77 | 48 | 2.0 | 3.0 | 0.00 | 0.00 | 0.00 | 84 | 1009.8 |
| 20260506190914 | 77 | 305 | 3.0 | 4.0 | 0.00 | 0.00 | 0.00 | 84 | 1009.8 |
| 20260506190411 | 75 | 21 | 2.0 | 4.0 | 0.00 | 0.00 | 0.00 | 86 | 1009.5 |
| 20260506185908 | 74 | 11 | 3.0 | 8.0 | 0.00 | 0.00 | 0.00 | 86 | 1009.7 |
| 20260506185405 | 74 | 59 | 7.0 | 8.0 | 0.00 | 0.00 | 0.00 | 86 | 1009.7 |
| 20260506184902 | 72 | 65 | 2.0 | 7.0 | 0.00 | 0.00 | 0.00 | 88 | 1009.3 |
| 20260506184359 | 72 | 41 | 6.0 | 9.0 | 0.00 | 0.00 | 0.00 | 89 | 1009.6 |
| 20260506183856 | 73 | 20 | 7.0 | 9.0 | 0.00 | 0.00 | 0.00 | 86 | 1009.7 |
| 20260506183351 | 71 | 131 | 2.0 | 9.0 | 0.00 | 0.00 | 0.00 | 91 | 1009.6 |
| 20260506182849 | 71 | 97 | 6.0 | 8.0 | 0.00 | 0.00 | 0.00 | 89 | 1009.6 |
| 20260506182346 | 69 | 19 | 4.0 | 7.0 | 0.00 | 0.00 | 0.00 | 90 | 1009.8 |
| 20260506181843 | 69 | 27 | 5.0 | 10.0 | 0.00 | 0.00 | 0.00 | 90 | 1009.7 |
| 20260506181341 | 69 | 14 | 2.0 | 9.0 | 0.00 | 0.00 | 0.00 | 89 | 1010.2 |
| 20260506180838 | 68 | 79 | 7.0 | 15.0 | 0.00 | 0.00 | 0.00 | 92 | 1010.1 |
| 20260506180334 | 68 | 27 | 0.0 | 7.0 | 0.00 | 0.00 | 0.00 | 91 | 1010.3 |
| 20260506175830 | 68 | 5 | 2.0 | 9.0 | 0.00 | 0.00 | 0.00 | 91 | 1010.7 |
| 20260506175327 | 68 | 1 | 5.0 | 6.0 | 0.00 | 0.00 | 0.00 | 91 | 1010.8 |
| 20260506174824 | 67 | 43 | 6.0 | 11.0 | 0.00 | 0.00 | 0.00 | 92 | 1010.8 |
| 20260506174321 | 67 | 102 | 6.0 | 6.0 | 0.00 | 0.00 | 0.00 | 92 | 1011.0 |
| 20260506173819 | 66 | 28 | 5.0 | 10.0 | 0.00 | 0.00 | 0.00 | 91 | 1010.8 |
| 20260506173316 | 66 | 28 | 10.0 | 13.0 | 0.00 | 0.00 | 0.00 | 94 | 1010.5 |
| 20260506172813 | 66 | 0 | 5.0 | 7.0 | 0.00 | 0.00 | 0.00 | 95 | 1011.0 |
| 20260506172309 | 65 | 27 | 7.0 | 21.0 | 0.00 | 0.00 | 0.00 | 96 | 1010.8 |
| 20260506171807 | 64 | 87 | 4.0 | 9.0 | 0.00 | 0.00 | 0.00 | 97 | 1011.0 |
| 20260506171304 | 64 | 20 | 3.0 | 11.0 | 0.00 | 0.00 | 0.00 | 98 | 1011.5 |
| 20260506170802 | 65 | 346 | 6.0 | 10.0 | 0.00 | 0.00 | 0.00 | 97 | 1011.5 |
| 20260506170257 | 65 | 358 | 4.0 | 16.0 | 0.00 | 0.00 | 0.00 | 97 | 1011.5 |
| 20260506165756 | 66 | 23 | 3.0 | 11.0 | 0.00 | 0.00 | 0.00 | 96 | 1011.5 |
| 20260506165253 | 66 | 100 | 5.0 | 16.0 | 0.00 | 0.00 | 0.00 | 96 | 1011.9 |
| 20260506164750 | 66 | 19 | 4.0 | 12.0 | 0.00 | 0.00 | 0.00 | 95 | 1011.8 |
| 20260506164247 | 67 | 349 | 4.0 | 11.0 | 0.00 | 0.00 | 0.00 | 95 | 1011.9 |
| 20260506163744 | 67 | 3 | 5.0 | 11.0 | 0.00 | 0.00 | 0.00 | 94 | 1011.7 |
| 20260506163238 | 69 | 11 | 6.0 | 16.0 | 0.00 | 0.00 | 0.00 | 93 | 1011.6 |
| 20260506162735 | 71 | 338 | 3.0 | 17.0 | 0.00 | 0.00 | 0.00 | 90 | 1011.6 |
| 20260506162233 | 80 | 270 | 4.0 | 4.0 | 0.00 | 0.00 | 0.00 | 92 | 1011.1 |
| 20260506161730 | 79 | 270 | 0.0 | 1.0 | 0.00 | 0.00 | 0.00 | 91 | 1011.1 |
| 20260506161227 | 79 | 201 | 0.0 | 0.0 | 0.00 | 0.00 | 0.00 | 92 | 1011.0 |
| 20260506160724 | 79 | 215 | 1.0 | 3.0 | 0.00 | 0.00 | 0.00 | 92 | 1010.9 |
| 20260506160221 | 79 | 237 | 0.0 | 3.0 | 0.00 | 0.00 | 0.00 | 92 | 1010.7 |
| 20260506155720 | 80 | 210 | 2.0 | 2.0 | 0.00 | 0.00 | 0.00 | 91 | 1010.8 |
| 20260506155216 | 80 | 99 | 0.0 | 1.0 | 0.00 | 0.00 | 0.00 | 91 | 1010.3 |
| 20260506153318 | 79 | 197 | 2.0 | 3.0 | 0.00 | 0.00 | 0.00 | 92 | 1009.8 |
| 20260506152815 | 79 | 154 | 3.0 | 3.0 | 0.00 | 0.00 | 0.00 | 92 | 1009.7 |
| 20260506152312 | 79 | 128 | 0.0 | 3.0 | 0.00 | 0.00 | 0.00 | 93 | 1009.9 |
| 20260506151811 | 79 | 93 | 3.0 | 3.0 | 0.00 | 0.00 | 0.00 | 93 | 1009.8 |
| 20260506151307 | 79 | 66 | 1.0 | 3.0 | 0.00 | 0.00 | 0.00 | 94 | 1009.7 |
| 20260506150804 | 78 | 124 | 2.0 | 5.0 | 0.00 | 0.00 | 0.00 | 94 | 1009.8 |
| 20260506150304 | 78 | 139 | 2.0 | 3.0 | 0.00 | 0.00 | 0.00 | 94 | 1009.9 |
| 20260506145758 | 78 | 106 | 0.0 | 4.0 | 0.00 | 0.00 | 0.00 | 93 | 1009.5 |
| 20260506145254 | 79 | 217 | 2.0 | 3.0 | 0.00 | 0.00 | 0.00 | 94 | 1009.5 |
| 20260506144752 | 78 | 166 | 1.0 | 3.0 | 0.00 | 0.00 | 0.00 | 94 | 1009.7 |
| 20260506144248 | 78 | 165 | 1.0 | 3.0 | 0.00 | 0.00 | 0.00 | 94 | 1009.7 |
| 20260506143746 | 78 | 127 | 0.0 | 2.0 | 0.00 | 0.00 | 0.00 | 95 | 1009.9 |
| 20260506143243 | 78 | 106 | 0.0 | 1.0 | 0.00 | 0.00 | 0.00 | 95 | 1009.7 |
| 20260506142742 | 77 | 35 | 1.0 | 3.0 | 0.00 | 0.00 | 0.00 | 96 | 1009.8 |
| 20260506142239 | 77 | 12 | 1.0 | 3.0 | 0.00 | 0.00 | 0.00 | 96 | 1009.7 |
| 20260506141738 | 78 | 101 | 2.0 | 2.0 | 0.00 | 0.00 | 0.00 | 96 | 1009.6 |
| 20260506141235 | 78 | 81 | 0.0 | 2.0 | 0.00 | 0.00 | 0.00 | 97 | 1008.8 |
| 20260506140733 | 77 | 103 | 0.0 | 5.0 | 0.00 | 0.00 | 0.00 | 97 | 1008.8 |
| 20260506140229 | 77 | 90 | 2.0 | 3.0 | 0.00 | 0.00 | 0.00 | 97 | 1008.8 |
| 20260506135726 | 77 | 90 | 0.0 | 2.0 | 0.00 | 0.00 | 0.00 | 98 | 1009.0 |
| 20260506135222 | 76 | 8 | 0.0 | 2.0 | 0.00 | 0.00 | 0.00 | 98 | 1008.9 |
| 20260506134720 | 76 | 90 | 0.0 | 3.0 | 0.00 | 0.00 | 0.00 | 98 | 1009.0 |
| 20260506134216 | 76 | 45 | 2.0 | 2.0 | 0.00 | 0.00 | 0.00 | 98 | 1009.0 |
| 20260506133713 | 76 | 83 | 0.0 | 2.0 | 0.00 | 0.00 | 0.00 | 98 | 1008.7 |
| 20260506133209 | 76 | 90 | 0.0 | 2.0 | 0.00 | 0.00 | 0.00 | 98 | 1008.8 |
| 20260506132707 | 76 | 154 | 1.0 | 3.0 | 0.00 | 0.00 | 0.00 | 98 | 1008.8 |
| 20260506132203 | 76 | 96 | 0.0 | 2.0 | 0.00 | 0.00 | 0.00 | 99 | 1009.0 |
| 20260506131701 | 76 | 81 | 0.0 | 0.0 | 0.00 | 0.00 | 0.00 | 99 | 1008.9 |
| 20260506131157 | 76 | 114 | 1.0 | 1.0 | 0.00 | 0.00 | 0.00 | 99 | 1008.9 |
| 20260506130654 | 76 | 114 | 0.0 | 1.0 | 0.00 | 0.00 | 0.00 | 99 | 1008.8 |
| 20260506130152 | 75 | 82 | 0.0 | 0.0 | 0.00 | 0.00 | 0.00 | 99 | 1009.0 |
| 20260506125649 | 75 | 120 | 0.0 | 0.0 | 0.00 | 0.00 | 0.00 | 99 | 1009.1 |
| 20260506125147 | 75 | 90 | 0.0 | 1.0 | 0.00 | 0.00 | 0.00 | 99 | 1008.7 |
| 20260506124645 | 75 | 66 | 0.0 | 0.0 | 0.00 | 0.00 | 0.00 | 99 | 1009.0 |
| 20260506124142 | 75 | 66 | 0.0 | 0.0 | 0.00 | 0.00 | 0.00 | 99 | 1008.9 |
| 20260506123640 | 75 | 66 | 0.0 | 0.0 | 0.00 | 0.00 | 0.00 | 99 | 1008.7 |
| 20260506123138 | 75 | 66 | 0.0 | 1.0 | 0.00 | 0.00 | 0.00 | 99 | 1008.8 |
| 20260506122635 | 75 | 81 | 0.0 | 0.0 | 0.00 | 0.00 | 0.00 | 99 | 1008.8 |
| 20260506122133 | 75 | 352 | 0.0 | 0.0 | 0.00 | 0.00 | 0.00 | 99 | 1008.8 |
| 20260506121630 | 75 | 90 | 0.0 | 0.0 | 0.00 | 0.00 | 0.00 | 99 | 1008.6 |
| 20260506121126 | 75 | 90 | 0.0 | 0.0 | 0.00 | 0.00 | 0.00 | 99 | 1008.6 |
| 20260506120624 | 75 | 90 | 0.0 | 0.0 | 0.00 | 0.00 | 0.00 | 99 | 1008.9 |
| 20260506120121 | 75 | 90 | 0.0 | 0.0 | 0.00 | 0.00 | 0.00 | 98 | 1008.6 |
| 20260506115620 | 75 | 90 | 0.0 | 0.0 | 0.00 | 0.00 | 0.00 | 98 | 1008.6 |
| 20260506115118 | 75 | 90 | 0.0 | 0.0 | 0.00 | 0.00 | 0.00 | 98 | 1008.7 |
| 20260506114614 | 75 | 90 | 0.0 | 0.0 | 0.00 | 0.00 | 0.00 | 98 | 1008.7 |
| 20260506114113 | 75 | 90 | 0.0 | 0.0 | 0.00 | 0.00 | 0.00 | 98 | 1008.7 |
| 20260506113611 | 75 | 81 | 0.0 | 1.0 | 0.00 | 0.00 | 0.00 | 98 | 1008.4 |
| 20260506113108 | 75 | 0 | 0.0 | 0.0 | 0.00 | 0.00 | 0.00 | 98 | 1008.5 |
| 20260506112604 | 75 | 90 | 0.0 | 0.0 | 0.00 | 0.00 | 0.00 | 98 | 1008.3 |
| 20260506112102 | 75 | 165 | 0.0 | 0.0 | 0.00 | 0.00 | 0.00 | 98 | 1008.3 |
| 20260506111559 | 75 | 165 | 0.0 | 0.0 | 0.00 | 0.00 | 0.00 | 97 | 1008.3 |
| 20260506111056 | 75 | 234 | 0.0 | 0.0 | 0.00 | 0.00 | 0.00 | 97 | 1008.1 |
| 20260506110554 | 75 | 195 | 0.0 | 1.0 | 0.00 | 0.00 | 0.00 | 97 | 1008.4 |
| 20260506110051 | 75 | 270 | 0.0 | 2.0 | 0.00 | 0.00 | 0.00 | 97 | 1008.2 |
| 20260506105547 | 75 | 243 | 0.0 | 2.0 | 0.00 | 0.00 | 0.00 | 97 | 1008.0 |
| 20260506105044 | 75 | 243 | 0.0 | 2.0 | 0.00 | 0.00 | 0.00 | 97 | 1008.1 |
| 20260506104542 | 75 | 240 | 0.0 | 2.0 | 0.00 | 0.00 | 0.00 | 97 | 1008.0 |
| 20260506104040 | 75 | 203 | 0.0 | 3.0 | 0.00 | 0.00 | 0.00 | 97 | 1007.9 |
| 20260506103537 | 75 | 174 | 0.0 | 2.0 | 0.00 | 0.00 | 0.00 | 97 | 1007.9 |
| 20260506103033 | 75 | 262 | 2.0 | 2.0 | 0.00 | 0.00 | 0.00 | 97 | 1008.0 |
| 20260506102532 | 75 | 230 | 3.0 | 3.0 | 0.00 | 0.00 | 0.00 | 97 | 1008.0 |
| 20260506102029 | 75 | 209 | 0.0 | 2.0 | 0.00 | 0.00 | 0.00 | 97 | 1007.8 |
| 20260506101526 | 76 | 151 | 0.0 | 3.0 | 0.00 | 0.00 | 0.00 | 97 | 1007.9 |
| 20260506101023 | 76 | 204 | 2.0 | 5.0 | 0.00 | 0.00 | 0.00 | 97 | 1007.8 |
| 20260506100521 | 76 | 255 | 0.0 | 3.0 | 0.00 | 0.00 | 0.00 | 97 | 1007.7 |
| 20260506100019 | 76 | 140 | 0.0 | 2.0 | 0.00 | 0.00 | 0.00 | 97 | 1007.4 |
| 20260506095518 | 76 | 234 | 0.0 | 3.0 | 0.00 | 0.00 | 0.00 | 97 | 1007.8 |
| 20260506095013 | 76 | 221 | 2.0 | 7.0 | 0.00 | 0.00 | 0.00 | 96 | 1007.4 |
| 20260506094511 | 76 | 232 | 2.0 | 4.0 | 0.00 | 0.00 | 0.00 | 97 | 1007.3 |
| 20260506094009 | 76 | 152 | 4.0 | 4.0 | 0.00 | 0.00 | 0.00 | 97 | 1007.2 |
| 20260506093507 | 76 | 197 | 0.0 | 3.0 | 0.00 | 0.00 | 0.00 | 97 | 1007.3 |
| 20260506093004 | 76 | 212 | 3.0 | 5.0 | 0.00 | 0.00 | 0.00 | 97 | 1007.5 |
| 20260506092502 | 76 | 208 | 2.0 | 3.0 | 0.00 | 0.00 | 0.00 | 97 | 1007.3 |
| 20260506091958 | 76 | 212 | 4.0 | 7.0 | 0.00 | 0.00 | 0.00 | 97 | 1007.0 |
| 20260506091457 | 76 | 216 | 3.0 | 7.0 | 0.00 | 0.00 | 0.00 | 97 | 1007.4 |
| 20260506090953 | 76 | 154 | 1.0 | 7.0 | 0.00 | 0.00 | 0.00 | 97 | 1007.4 |
| 20260506090451 | 76 | 214 | 4.0 | 7.0 | 0.00 | 0.00 | 0.00 | 97 | 1007.2 |
| 20260506085947 | 76 | 212 | 3.0 | 5.0 | 0.00 | 0.00 | 0.00 | 97 | 1007.4 |
| 20260506085444 | 76 | 214 | 4.0 | 6.0 | 0.00 | 0.00 | 0.00 | 97 | 1007.3 |
| 20260506084941 | 76 | 180 | 2.0 | 6.0 | 0.00 | 0.00 | 0.00 | 97 | 1007.1 |
| 20260506084438 | 76 | 152 | 0.0 | 7.0 | 0.00 | 0.00 | 0.00 | 97 | 1007.3 |
| 20260506083934 | 76 | 235 | 2.0 | 4.0 | 0.00 | 0.00 | 0.00 | 97 | 1007.1 |
| 20260506083431 | 76 | 209 | 1.0 | 6.0 | 0.00 | 0.00 | 0.00 | 97 | 1007.2 |
| 20260506082928 | 76 | 228 | 2.0 | 5.0 | 0.00 | 0.00 | 0.00 | 97 | 1007.2 |
| 20260506082425 | 76 | 215 | 6.0 | 9.0 | 0.00 | 0.00 | 0.00 | 97 | 1007.1 |
| 20260506081921 | 75 | 222 | 3.0 | 6.0 | 0.00 | 0.00 | 0.00 | 97 | 1007.2 |
| 20260506081420 | 75 | 182 | 4.0 | 10.0 | 0.00 | 0.00 | 0.00 | 97 | 1007.0 |
| 20260506080916 | 75 | 185 | 1.0 | 9.0 | 0.00 | 0.00 | 0.00 | 97 | 1007.0 |
| 20260506080413 | 75 | 137 | 0.0 | 7.0 | 0.00 | 0.00 | 0.00 | 97 | 1007.1 |
| 20260506073357 | 75 | 154 | 3.0 | 8.0 | 0.00 | 0.00 | 0.00 | 98 | 1007.3 |
| 20260506072854 | 75 | 186 | 1.0 | 5.0 | 0.00 | 0.00 | 0.00 | 98 | 1007.2 |
| 20260506072352 | 75 | 165 | 2.0 | 10.0 | 0.00 | 0.00 | 0.00 | 98 | 1007.2 |
| 20260506071849 | 75 | 157 | 3.0 | 8.0 | 0.00 | 0.00 | 0.00 | 98 | 1007.5 |
| 20260506071347 | 75 | 172 | 0.0 | 10.0 | 0.00 | 0.00 | 0.00 | 98 | 1007.6 |
| 20260506070843 | 75 | 227 | 3.0 | 10.0 | 0.00 | 0.00 | 0.00 | 98 | 1007.6 |
| 20260506070341 | 75 | 206 | 4.0 | 6.0 | 0.00 | 0.00 | 0.00 | 98 | 1007.4 |
| 20260506062318 | 75 | 194 | 2.0 | 8.0 | 0.00 | 0.00 | 0.00 | 98 | 1007.7 |
| 20260506061814 | 75 | 113 | 2.0 | 5.0 | 0.00 | 0.00 | 0.00 | 98 | 1007.9 |
| 20260506061311 | 75 | 229 | 3.0 | 7.0 | 0.00 | 0.00 | 0.00 | 98 | 1007.8 |
| 20260506060809 | 75 | 220 | 3.0 | 6.0 | 0.00 | 0.00 | 0.00 | 98 | 1007.8 |
| 20260506060307 | 75 | 231 | 0.0 | 5.0 | 0.00 | 0.00 | 0.00 | 98 | 1007.9 |
| 20260506051238 | 75 | 144 | 3.0 | 6.0 | 0.00 | 0.00 | 0.00 | 97 | 1007.8 |
| 20260506050736 | 75 | 157 | 1.0 | 9.0 | 0.00 | 0.00 | 0.00 | 97 | 1007.8 |
| 20260506050233 | 75 | 160 | 3.0 | 6.0 | 0.00 | 0.00 | 0.00 | 97 | 1007.7 |
| 20260506044724 | 75 | 133 | 6.0 | 7.0 | 0.00 | 0.00 | 0.00 | 96 | 1007.6 |
| 20260506044221 | 75 | 147 | 5.0 | 7.0 | 0.00 | 0.00 | 0.00 | 96 | 1007.9 |
| 20260506043719 | 76 | 213 | 2.0 | 10.0 | 0.00 | 0.00 | 0.00 | 96 | 1007.8 |
| 20260506043216 | 76 | 237 | 3.0 | 3.0 | 0.00 | 0.00 | 0.00 | 96 | 1007.8 |
| 20260506042715 | 76 | 159 | 0.0 | 4.0 | 0.00 | 0.00 | 0.00 | 96 | 1007.6 |
| 20260506042213 | 76 | 164 | 0.0 | 5.0 | 0.00 | 0.00 | 0.00 | 96 | 1007.5 |
| 20260506041711 | 76 | 215 | 0.0 | 6.0 | 0.00 | 0.00 | 0.00 | 95 | 1007.7 |
| 20260506041208 | 76 | 150 | 0.0 | 6.0 | 0.00 | 0.00 | 0.00 | 95 | 1007.5 |
| 20260506040705 | 76 | 206 | 4.0 | 7.0 | 0.00 | 0.00 | 0.00 | 95 | 1007.5 |
| 20260506040201 | 76 | 209 | 1.0 | 6.0 | 0.00 | 0.00 | 0.00 | 95 | 1007.5 |
| 20260506035653 | 76 | 201 | 2.0 | 8.0 | 0.00 | 0.00 | 0.00 | 95 | 1007.5 |
| 20260506035149 | 76 | 159 | 3.0 | 5.0 | 0.00 | 0.00 | 0.00 | 95 | 1007.3 |
| 20260506034646 | 76 | 159 | 2.0 | 7.0 | 0.00 | 0.00 | 0.00 | 95 | 1007.2 |
| 20260506034143 | 76 | 211 | 0.0 | 8.0 | 0.00 | 0.00 | 0.00 | 95 | 1007.0 |
| 20260506033641 | 76 | 188 | 0.0 | 4.0 | 0.00 | 0.00 | 0.00 | 95 | 1006.9 |
| 20260506033137 | 76 | 133 | 3.0 | 4.0 | 0.00 | 0.00 | 0.00 | 95 | 1007.0 |
| 20260506032634 | 76 | 152 | 3.0 | 5.0 | 0.00 | 0.00 | 0.00 | 94 | 1006.9 |
| 20260506032132 | 77 | 199 | 2.0 | 5.0 | 0.00 | 0.00 | 0.00 | 94 | 1006.9 |
| 20260506031628 | 77 | 201 | 4.0 | 7.0 | 0.00 | 0.00 | 0.00 | 94 | 1007.0 |
| 20260506031125 | 77 | 180 | 4.0 | 7.0 | 0.00 | 0.00 | 0.00 | 94 | 1006.6 |
| 20260506030624 | 77 | 223 | 7.0 | 9.0 | 0.00 | 0.00 | 0.00 | 93 | 1006.6 |
| 20260506030121 | 77 | 172 | 0.0 | 12.0 | 0.00 | 0.00 | 0.00 | 93 | 1006.5 |
| 20260506025618 | 77 | 158 | 8.0 | 10.0 | 0.00 | 0.00 | 0.00 | 93 | 1006.4 |
| 20260506025114 | 77 | 158 | 6.0 | 8.0 | 0.00 | 0.00 | 0.00 | 93 | 1006.5 |
| 20260506024612 | 77 | 213 | 4.0 | 10.0 | 0.00 | 0.00 | 0.00 | 92 | 1006.3 |
| 20260506024107 | 77 | 154 | 4.0 | 8.0 | 0.00 | 0.00 | 0.00 | 92 | 1006.3 |
| 20260506023604 | 77 | 180 | 5.0 | 6.0 | 0.00 | 0.00 | 0.00 | 92 | 1006.5 |
| 20260506023101 | 78 | 162 | 6.0 | 8.0 | 0.00 | 0.00 | 0.00 | 91 | 1006.1 |
| 20260506022558 | 78 | 180 | 2.0 | 6.0 | 0.00 | 0.00 | 0.00 | 91 | 1006.4 |
| 20260506022055 | 78 | 180 | 2.0 | 7.0 | 0.00 | 0.00 | 0.00 | 91 | 1006.1 |
| 20260506021553 | 78 | 165 | 5.0 | 9.0 | 0.00 | 0.00 | 0.00 | 91 | 1006.2 |
| 20260506021050 | 78 | 194 | 2.0 | 7.0 | 0.00 | 0.00 | 0.00 | 91 | 1006.4 |
| 20260506020547 | 78 | 157 | 5.0 | 7.0 | 0.00 | 0.00 | 0.00 | 91 | 1006.2 |
| 20260506020044 | 78 | 221 | 2.0 | 7.0 | 0.00 | 0.00 | 0.00 | 91 | 1006.2 |
| 20260506015542 | 78 | 170 | 3.0 | 6.0 | 0.00 | 0.00 | 0.00 | 91 | 1006.4 |